Time,TemperatureF,DewpointF,PressureIn,WindDirection,WindDirectionDegrees,WindSpeedMPH,WindSpeedGustMPH,Humidity,HourlyPrecipIn,Conditions,Clouds,dailyrainin,SoftwareType,DateUTC
2013-10-30 00:00:00,58.1,57.0,30.27,SW,233,0.0,0.0,95,0.00,,,0.00,weatherlink.com 1.10,2013-10-30 04:00:00,
2013-10-30 00:15:00,57.8,56.0,30.27,SW,233,0.0,0.0,94,0.00,,,0.00,weatherlink.com 1.10,2013-10-30 04:15:00,
2013-10-30 00:30:00,57.3,56.0,30.28,SW,233,0.0,0.0,94,0.00,,,0.00,weatherlink.com 1.10,2013-10-30 04:30:00,
2013-10-30 00:46:00,57.3,56.0,30.27,SW,233,0.0,0.0,95,0.00,,,0.00,weatherlink.com 1.10,2013-10-30 04:46:00,
2013-10-30 01:01:00,57.1,56.0,30.27,SW,233,0.0,0.0,95,0.00,,,0.00,weatherlink.com 1.10,2013-10-30 05:01:00,
2013-10-30 01:16:00,56.7,55.0,30.27,SW,233,0.0,0.0,95,0.00,,,0.00,weatherlink.com 1.10,2013-10-30 05:16:00,
2013-10-30 01:31:00,56.5,55.0,30.28,SW,233,0.0,0.0,95,0.00,,,0.00,weatherlink.com 1.10,2013-10-30 05:31:00,
2013-10-30 01:46:00,56.9,56.0,30.27,SW,233,0.0,0.0,95,0.00,,,0.00,weatherlink.com 1.10,2013-10-30 05:46:00,
2013-10-30 02:01:00,56.6,55.0,30.28,SW,233,0.0,0.0,95,0.00,,,0.00,weatherlink.com 1.10,2013-10-30 06:01:00,
2013-10-30 02:16:00,56.5,55.0,30.28,SW,233,0.0,0.0,95,0.00,,,0.00,weatherlink.com 1.10,2013-10-30 06:16:00,
2013-10-30 02:31:00,56.2,55.0,30.27,SW,233,0.0,0.0,95,0.00,,,0.00,weatherlink.com 1.10,2013-10-30 06:31:00,
2013-10-30 02:46:00,56.0,55.0,30.28,SW,233,0.0,0.0,95,0.00,,,0.00,weatherlink.com 1.10,2013-10-30 06:46:00,
2013-10-30 03:01:00,55.8,54.0,30.27,SW,233,0.0,0.0,95,0.00,,,0.00,weatherlink.com 1.10,2013-10-30 07:01:00,
2013-10-30 03:16:00,55.7,54.0,30.27,SW,233,0.0,0.0,95,0.00,,,0.00,weatherlink.com 1.10,2013-10-30 07:16:00,
2013-10-30 03:31:00,55.4,54.0,30.27,SW,233,0.0,0.0,95,0.00,,,0.00,weatherlink.com 1.10,2013-10-30 07:31:00,
2013-10-30 03:46:00,55.5,54.0,30.26,SW,233,0.0,0.0,95,0.00,,,0.00,weatherlink.com 1.10,2013-10-30 07:46:00,
2013-10-30 04:01:00,55.3,54.0,30.26,SW,233,0.0,0.0,95,0.00,,,0.00,weatherlink.com 1.10,2013-10-30 08:01:00,
2013-10-30 04:16:00,54.8,53.0,30.26,SW,233,0.0,0.0,95,0.00,,,0.00,weatherlink.com 1.10,2013-10-30 08:16:00,
2013-10-30 04:31:00,54.3,53.0,30.26,SW,233,0.0,0.0,95,0.00,,,0.00,weatherlink.com 1.10,2013-10-30 08:31:00,
2013-10-30 04:46:00,54.1,53.0,30.26,SW,233,0.0,0.0,95,0.00,,,0.00,weatherlink.com 1.10,2013-10-30 08:46:00,
2013-10-30 05:01:00,54.0,53.0,30.26,SW,233,0.0,0.0,95,0.00,,,0.00,weatherlink.com 1.10,2013-10-30 09:01:00,
2013-10-30 05:16:00,53.8,52.0,30.26,SW,233,0.0,0.0,95,0.00,,,0.00,weatherlink.com 1.10,2013-10-30 09:16:00,
2013-10-30 05:31:00,53.6,52.0,30.27,SW,233,0.0,0.0,95,0.00,,,0.00,weatherlink.com 1.10,2013-10-30 09:31:00,
2013-10-30 05:46:00,53.7,53.0,30.28,SW,233,0.0,0.0,96,0.00,,,0.00,weatherlink.com 1.10,2013-10-30 09:46:00,
2013-10-30 06:01:00,53.4,52.0,30.28,SW,233,0.0,0.0,95,0.00,,,0.00,weatherlink.com 1.10,2013-10-30 10:01:00,
2013-10-30 06:16:00,53.4,52.0,30.28,SW,233,0.0,0.0,96,0.00,,,0.00,weatherlink.com 1.10,2013-10-30 10:16:00,
2013-10-30 06:31:00,53.1,52.0,30.28,SW,233,0.0,0.0,95,0.00,,,0.00,weatherlink.com 1.10,2013-10-30 10:31:00,
2013-10-30 06:46:00,53.2,52.0,30.29,SW,233,0.0,0.0,96,0.00,,,0.00,weatherlink.com 1.10,2013-10-30 10:46:00,
2013-10-30 07:01:00,53.1,52.0,30.29,SW,233,0.0,0.0,96,0.00,,,0.00,weatherlink.com 1.10,2013-10-30 11:01:00,
2013-10-30 07:16:00,52.9,52.0,30.30,SW,233,0.0,0.0,96,0.00,,,0.00,weatherlink.com 1.10,2013-10-30 11:16:00,
2013-10-30 07:31:00,53.0,52.0,30.30,SW,233,0.0,0.0,96,0.00,,,0.00,weatherlink.com 1.10,2013-10-30 11:31:00,
2013-10-30 07:46:00,53.2,52.0,30.30,SW,233,0.0,0.0,96,0.00,,,0.00,weatherlink.com 1.10,2013-10-30 11:46:00,
2013-10-30 08:01:00,53.3,52.0,30.30,SW,233,0.0,0.0,96,0.00,,,0.00,weatherlink.com 1.10,2013-10-30 12:01:00,
2013-10-30 08:16:00,53.1,52.0,30.30,SW,233,0.0,0.0,96,0.00,,,0.00,weatherlink.com 1.10,2013-10-30 12:16:00,
2013-10-30 08:31:00,53.2,52.0,30.30,SW,233,0.0,0.0,96,0.00,,,0.00,weatherlink.com 1.10,2013-10-30 12:31:00,
2013-10-30 08:46:00,53.6,53.0,30.30,SW,233,0.0,0.0,96,0.00,,,0.00,weatherlink.com 1.10,2013-10-30 12:46:00,
2013-10-30 09:01:00,53.9,53.0,30.31,SW,233,0.0,0.0,96,0.00,,,0.00,weatherlink.com 1.10,2013-10-30 13:01:00,
2013-10-30 09:30:00,55.2,54.0,30.31,SW,233,0.0,0.0,96,0.00,,,0.00,weatherlink.com 1.10,2013-10-30 13:30:00,
2013-10-30 09:46:00,56.7,56.0,30.31,SW,233,0.0,0.0,96,0.00,,,0.00,weatherlink.com 1.10,2013-10-30 13:46:00,
2013-10-30 10:01:00,58.1,57.0,30.32,SW,214,0.0,1.0,96,0.00,,,0.00,weatherlink.com 1.10,2013-10-30 14:01:00,
2013-10-30 10:16:00,59.8,58.0,30.32,SSW,208,0.0,2.0,95,0.00,,,0.00,weatherlink.com 1.10,2013-10-30 14:16:00,
2013-10-30 10:31:00,61.4,58.0,30.32,SW,229,0.0,1.0,89,0.00,,,0.00,weatherlink.com 1.10,2013-10-30 14:31:00,
2013-10-30 10:46:00,62.3,58.0,30.31,SSW,205,0.0,2.0,86,0.00,,,0.00,weatherlink.com 1.10,2013-10-30 14:46:00,
2013-10-30 11:01:00,63.8,59.0,30.31,SW,220,4.0,4.0,83,0.00,,,0.00,weatherlink.com 1.10,2013-10-30 15:01:00,
2013-10-30 11:16:00,65.0,59.0,30.31,SW,225,3.0,4.0,80,0.00,,,0.00,weatherlink.com 1.10,2013-10-30 15:16:00,
2013-10-30 11:31:00,65.9,59.0,30.31,SW,224,0.0,4.0,79,0.00,,,0.00,weatherlink.com 1.10,2013-10-30 15:31:00,
2013-10-30 11:46:00,66.8,59.0,30.30,SSW,208,0.0,3.0,77,0.00,,,0.00,weatherlink.com 1.10,2013-10-30 15:46:00,
2013-10-30 12:01:00,68.9,61.0,30.30,SW,235,0.0,3.0,75,0.00,,,0.00,weatherlink.com 1.10,2013-10-30 16:01:00,
2013-10-30 12:16:00,70.3,60.0,30.30,SSW,203,1.0,3.0,71,0.00,,,0.00,weatherlink.com 1.10,2013-10-30 16:16:00,
2013-10-30 12:31:00,72.2,60.0,30.29,SW,236,3.0,4.0,66,0.00,,,0.00,weatherlink.com 1.10,2013-10-30 16:31:00,
2013-10-30 12:46:00,73.5,61.0,30.28,South,169,1.0,3.0,65,0.00,,,0.00,weatherlink.com 1.10,2013-10-30 16:46:00,
2013-10-30 13:01:00,74.6,60.0,30.27,WSW,248,0.0,4.0,60,0.00,,,0.00,weatherlink.com 1.10,2013-10-30 17:01:00,
2013-10-30 13:16:00,75.5,61.0,30.26,SSW,212,0.0,3.0,60,0.00,,,0.00,weatherlink.com 1.10,2013-10-30 17:16:00,
2013-10-30 13:32:00,75.5,59.0,30.24,West,278,0.0,4.0,57,0.00,,,0.00,weatherlink.com 1.10,2013-10-30 17:32:00,
2013-10-30 13:47:00,77.0,60.0,30.24,NNE,26,1.0,1.0,55,0.00,,,0.00,weatherlink.com 1.10,2013-10-30 17:47:00,
2013-10-30 14:02:00,77.6,59.0,30.23,SSW,194,2.0,5.0,53,0.00,,,0.00,weatherlink.com 1.10,2013-10-30 18:02:00,
2013-10-30 14:17:00,77.4,59.0,30.22,WSW,248,0.0,5.0,53,0.00,,,0.00,weatherlink.com 1.10,2013-10-30 18:17:00,
2013-10-30 14:32:00,77.4,58.0,30.21,SW,226,5.0,5.0,52,0.00,,,0.00,weatherlink.com 1.10,2013-10-30 18:32:00,
2013-10-30 14:47:00,77.0,59.0,30.20,WSW,239,0.0,3.0,54,0.00,,,0.00,weatherlink.com 1.10,2013-10-30 18:47:00,
2013-10-30 15:02:00,77.4,58.0,30.20,SW,220,1.0,5.0,52,0.00,,,0.00,weatherlink.com 1.10,2013-10-30 19:02:00,
2013-10-30 15:17:00,77.4,59.0,30.20,ESE,121,0.0,6.0,53,0.00,,,0.00,weatherlink.com 1.10,2013-10-30 19:17:00,
2013-10-30 15:32:00,76.9,58.0,30.20,SW,236,0.0,3.0,53,0.00,,,0.00,weatherlink.com 1.10,2013-10-30 19:32:00,
2013-10-30 15:47:00,76.7,58.0,30.20,SSW,197,1.0,5.0,53,0.00,,,0.00,weatherlink.com 1.10,2013-10-30 19:47:00,
2013-10-30 16:02:00,76.9,59.0,30.20,SSE,165,0.0,4.0,54,0.00,,,0.00,weatherlink.com 1.10,2013-10-30 20:02:00,
2013-10-30 16:17:00,76.6,59.0,30.18,SW,232,0.0,6.0,55,0.00,,,0.00,weatherlink.com 1.10,2013-10-30 20:17:00,
2013-10-30 16:32:00,76.2,58.0,30.18,WSW,239,1.0,4.0,54,0.00,,,0.00,weatherlink.com 1.10,2013-10-30 20:32:00,
2013-10-30 16:47:00,75.5,59.0,30.18,SSW,200,0.0,4.0,56,0.00,,,0.00,weatherlink.com 1.10,2013-10-30 20:47:00,
2013-10-30 17:02:00,74.9,59.0,30.18,SSE,154,0.0,1.0,57,0.00,,,0.00,weatherlink.com 1.10,2013-10-30 21:02:00,
2013-10-30 17:17:00,74.2,59.0,30.18,SW,224,0.0,3.0,59,0.00,,,0.00,weatherlink.com 1.10,2013-10-30 21:17:00,
2013-10-30 17:32:00,73.4,59.0,30.18,SW,217,0.0,1.0,60,0.00,,,0.00,weatherlink.com 1.10,2013-10-30 21:32:00,
2013-10-30 17:47:00,72.6,59.0,30.17,SW,221,0.0,1.0,62,0.00,,,0.00,weatherlink.com 1.10,2013-10-30 21:47:00,
2013-10-30 18:02:00,71.9,59.0,30.17,SSW,200,0.0,1.0,64,0.00,,,0.00,weatherlink.com 1.10,2013-10-30 22:02:00,
2013-10-30 18:17:00,70.9,61.0,30.17,SSW,211,0.0,0.0,70,0.00,,,0.00,weatherlink.com 1.10,2013-10-30 22:17:00,
2013-10-30 18:32:00,69.6,61.0,30.17,SSW,211,0.0,0.0,73,0.00,,,0.00,weatherlink.com 1.10,2013-10-30 22:32:00,
2013-10-30 18:47:00,68.1,60.0,30.17,SSW,211,0.0,0.0,75,0.00,,,0.00,weatherlink.com 1.10,2013-10-30 22:47:00,
2013-10-30 19:02:00,66.9,59.0,30.17,SSW,211,0.0,0.0,77,0.00,,,0.00,weatherlink.com 1.10,2013-10-30 23:02:00,
2013-10-30 19:17:00,65.9,60.0,30.17,SSW,211,0.0,0.0,80,0.00,,,0.00,weatherlink.com 1.10,2013-10-30 23:17:00,
2013-10-30 19:32:00,65.1,60.0,30.17,SSW,211,0.0,0.0,82,0.00,,,0.00,weatherlink.com 1.10,2013-10-30 23:32:00,
2013-10-30 19:47:00,64.4,60.0,30.18,SSW,211,0.0,0.0,84,0.00,,,0.00,weatherlink.com 1.10,2013-10-30 23:47:00,
2013-10-30 20:02:00,63.8,60.0,30.18,SSW,211,0.0,0.0,86,0.00,,,0.00,weatherlink.com 1.10,2013-10-31 00:02:00,
2013-10-30 20:17:00,63.3,59.0,30.18,SSW,211,0.0,0.0,86,0.00,,,0.00,weatherlink.com 1.10,2013-10-31 00:17:00,
2013-10-30 20:32:00,62.9,59.0,30.18,SSW,211,0.0,0.0,87,0.00,,,0.00,weatherlink.com 1.10,2013-10-31 00:32:00,
2013-10-30 20:47:00,62.6,59.0,30.18,SSW,211,0.0,0.0,89,0.00,,,0.00,weatherlink.com 1.10,2013-10-31 00:47:00,
2013-10-30 21:02:00,62.4,60.0,30.18,SSW,211,0.0,0.0,90,0.00,,,0.00,weatherlink.com 1.10,2013-10-31 01:02:00,
2013-10-30 21:17:00,62.1,59.0,30.18,SSW,211,0.0,0.0,90,0.00,,,0.00,weatherlink.com 1.10,2013-10-31 01:17:00,
2013-10-30 21:32:00,61.7,59.0,30.18,SSW,211,0.0,0.0,91,0.00,,,0.00,weatherlink.com 1.10,2013-10-31 01:32:00,
2013-10-30 21:47:00,61.4,59.0,30.18,SSW,211,0.0,0.0,91,0.00,,,0.00,weatherlink.com 1.10,2013-10-31 01:47:00,
2013-10-30 22:02:00,61.1,59.0,30.18,SSW,211,0.0,0.0,92,0.00,,,0.00,weatherlink.com 1.10,2013-10-31 02:02:00,
2013-10-30 22:17:00,60.8,59.0,30.18,SSW,211,0.0,0.0,92,0.00,,,0.00,weatherlink.com 1.10,2013-10-31 02:17:00,
2013-10-30 22:32:00,60.5,59.0,30.19,SSW,211,0.0,0.0,93,0.00,,,0.00,weatherlink.com 1.10,2013-10-31 02:32:00,
2013-10-30 22:47:00,60.0,58.0,30.19,SSW,211,0.0,0.0,93,0.00,,,0.00,weatherlink.com 1.10,2013-10-31 02:47:00,
2013-10-30 23:02:00,59.8,58.0,30.19,SSW,211,0.0,0.0,93,0.00,,,0.00,weatherlink.com 1.10,2013-10-31 03:02:00,
2013-10-30 23:17:00,59.7,58.0,30.20,SSW,211,0.0,0.0,94,0.00,,,0.00,weatherlink.com 1.10,2013-10-31 03:17:00,
2013-10-30 23:32:00,59.4,58.0,30.20,SSW,211,0.0,0.0,94,0.00,,,0.00,weatherlink.com 1.10,2013-10-31 03:32:00,
2013-10-30 23:47:00,59.2,58.0,30.19,SSW,211,0.0,0.0,94,0.00,,,0.00,weatherlink.com 1.10,2013-10-31 03:47:00,